{"data":{"norad_id":66696,"intl_designator":"2025-276AG","name":"IRIDE-MS1-EAGLET 2-2","alt_names":[],"object_type":"PAYLOAD","status":"ACTIVE","operator":null,"country":"IT","launch_date":"2025-11-28","launch_site_code":"AFWTR","launch_vehicle":null,"mission":null,"orbit_class":"UNKNOWN","rcs_meters":null,"size_class":null,"mass_kg":null,"dimensions":null,"purposes":[],"wikipedia_slug":null,"has_3d_model":false,"image_url":null,"decayed_at":null,"tle_current":{"epoch":"2026-09-20T10:18:56.098944Z","epoch_age_seconds":127039,"freshness":"FRESH","line1":"1 66696U 25276AG  26263.42981596  .00003434  00000+0  15582-3 0  9995","line2":"2 66696  97.4106 335.5266 0004830  50.6714 309.4949 15.21473214 44905","mean_motion":15.21473214,"eccentricity":0.000483,"inclination_deg":97.4106,"raan_deg":335.5266,"arg_perigee_deg":50.6714,"mean_anomaly_deg":309.4949,"bstar":0.00015582,"rev_number":4490,"period_min":94.645110196465,"perigee_km":498.07333078094,"apogee_km":504.71895979929,"semimajor_km":6879.5331452901,"source":"CELESTRAK","updated_at":"2026-09-21T09:00:16.128252Z"}}}